Regional Weather Roundup
Issued by NWS

Home | Current Version | Previous Version | Text Only | Print | Product List | Glossary Off
Versions: 1 2 3 4 5 6 7 8 9 10 11 12 13 14 15 16 17 18 19 20 21 22 23 24 25 26 27 28 29 30 31 32 33 34 35 36 37 38 39 40 41 42 43 44 45 46 47 48 49 50

000
ASUS43 KBIS 282310
RWRND

NORTH DAKOTA REGIONAL WEATHER ROUNDUP
NATIONAL WEATHER SERVICE BISMARCK ND
600 PM CDT TUE JUL 28 2015

NOTE: "FAIR" INDICATES FEW OR NO CLOUDS BELOW 12,000 FEET WITH NO
SIGNIFICANT WEATHER AND/OR OBSTRUCTIONS TO VISIBILITY.


NDZ001>003-009>011-017-290000-
NORTHWEST NORTH DAKOTA

CITY           SKY/WX    TMP DP  RH WIND       PRES   REMARKS
WILLISTON      LGT RAIN  59  52  77 W46G61    29.68R
MINOT          CLOUDY    64  50  60 SW33G54   29.49F
MINOT AFB      PTSUNNY   66  54  63 SW40G61   29.44F SQUALL
$$

NDZ018>021-031>035-040>046-290000-
SOUTHWEST NORTH DAKOTA

CITY           SKY/WX    TMP DP  RH WIND       PRES   REMARKS
BISMARCK       CLOUDY    70  47  43 W44G54    29.80R
DICKINSON      PTSUNNY   66  45  46 W46G61    29.85R
GARRISON         N/A     61  52  72 W29G44    29.66R
HETTINGER ARPT MOSUNNY   71  42  35 W38G49    29.95R
$$

NDZ004>008-012>016-024-026-027-054-290000-
NORTHEAST NORTH DAKOTA

CITY           SKY/WX    TMP DP  RH WIND       PRES   REMARKS
GRAND FORKS    PTSUNNY   76  54  46 SW18G33   29.62F
GRND FRKS AFB  CLOUDY    75  55  49 SW22G36   29.63F
DEVILS LAKE    PTSUNNY   72  52  49 SW29G45   29.58S
$$

NDZ022-023-025-028>030-036>039-047>053-290000-
SOUTHEAST NORTH DAKOTA

CITY           SKY/WX    TMP DP  RH WIND       PRES   REMARKS
FARGO          MOSUNNY   79  52  38 SW23G33   29.73S
JAMESTOWN      MOSUNNY   71  50  47 W26G41    29.73R
$$



USA.gov is the U.S. government's official web portal to all federal, state and local government web resources and services.